Location: Boiro
(42.6475°N, 8.8834°W)
Time: 03:11:50
(UTC+01:00)

Vanguard 1 Rocket - Pass Details

Date: 14 December 2021
Orbit: 651 x 4224 km, 34.3° (Epoch: 21 January)

Event Time Altitude Azimuth Distance (km) Brightness Sun altitude
Rises 07:17:01 0° 274° (W) 5,170 - -17.8°
Reaches altitude 10° 07:20:13 10° 266° (W) 4,578 - -17.3°
Exits shadow 07:21:53 15° 260° (W) 4,338 10.3 -17.0°
Maximum altitude 07:32:13 36° 206° (SSW) 4,150 10.6 -15.1°
Drops below altitude 10° 07:51:29 10° 151° (SSE) 7,205 12.7 -11.8°
Sets 07:58:28 0° 144° (SE) 8,425 13.4 -10.6°
